User: anonymous   Login
Location: Blue Moon Astronomical Observatory
(34.7385°N, 94.5476°W)
Time: 16:40:18
(UTC-05:00)
Language:

Iridium 77 - Orbit

View from above orbital plane
View from above orbital plane
View from above satellite
View from above satellite

Ground track
Ground track

The orbit data is extracted from the following two-line orbital elements,

1 25471U 98051E   14295.43041126  .00000731  00000-0  25394-3 0  1263
2 25471 086.3966 066.6188 0001953 107.3109 312.6970 14.34217702849182
Epoch (UTC): 22 October 2014 10:19:47
Eccentricity: 0.0001953
inclination: 86.3966°
perigee height: 776 km
apogee height: 779 km
right ascension of ascending node: 66.6188°
argument of perigee: 107.3109°
revolutions per day: 14.34217702
mean anomaly at epoch: 312.6970°
orbit number at epoch: 84918

The dashed part of the orbit path shows where the satellite is in the earth's shadow,  

DLR